EDT,Max TemperatureF,Mean TemperatureF,Min TemperatureF,Max Dew PointF,MeanDew PointF,Min DewpointF,Max Humidity, Mean Humidity, Min Humidity, Max Sea Level PressureIn, Mean Sea Level PressureIn, Min Sea Level PressureIn, Max VisibilityMiles, Mean VisibilityMiles, Min VisibilityMiles, Max Wind SpeedMPH, Mean Wind SpeedMPH, Max Gust SpeedMPH,PrecipitationIn, CloudCover, Events, WindDirDegrees
2013-3-1,37,32,26,30,25,23,93,69,60,29.71,29.66,29.58,10,9,0,14,5,18,0.00,7,,345
2013-3-2,37,34,30,25,23,19,75,65,52,29.70,29.68,29.64,10,10,10,16,8,20,0.00,8,,347
2013-3-3,35,30,26,25,22,19,80,71,60,29.67,29.64,29.60,10,8,1,13,8,,0.00,8,,343
2013-3-4,35,30,26,21,18,16,69,61,48,29.81,29.69,29.64,10,10,10,16,9,24,0.00,7,,325
2013-3-5,42,34,26,27,23,18,86,65,46,30.07,29.97,29.81,10,10,8,17,8,20,0.00,6,,1
2013-3-6,37,34,30,30,28,25,87,76,65,30.14,30.09,30.05,10,9,3,15,6,23,0.01,8,,41
2013-3-7,35,32,30,30,26,21,93,78,60,30.13,30.09,30.05,10,7,1,16,11,23,0.03,8,,16
2013-3-8,39,30,21,28,25,19,93,78,52,30.21,30.09,30.00,10,6,1,15,9,18,0.05,4,,3
2013-3-9,53,34,15,27,18,12,93,59,19,30.34,30.26,30.20,10,10,4,12,3,,0.00,0,,347
2013-3-10,51,35,19,28,22,16,93,63,30,30.41,30.33,30.25,10,10,7,13,2,,0.00,1,,189
2013-3-11,46,40,35,37,30,28,76,66,53,30.28,30.19,30.12,10,10,10,14,8,17,0.00,1,,183
2013-3-12,51,46,42,48,43,36,93,83,71,30.10,29.90,29.69,10,8,1,12,7,18,0.60,8,,187
2013-3-13,44,36,28,37,25,16,93,63,34,29.81,29.78,29.73,10,10,7,13,4,21,0.03,4,,293
2013-3-14,30,24,19,23,11,1,80,52,36,29.85,29.79,29.73,10,10,6,17,6,24,0.00,6,,284
2013-3-15,35,26,17,27,12,3,86,56,26,29.87,29.75,29.62,10,9,2,15,10,23,0.00,4,,290
2013-3-16,35,29,23,21,12,9,74,50,33,29.88,29.80,29.70,10,10,10,13,5,16,0.00,3,,345
2013-3-17,33,24,15,14,7,0,86,49,23,30.30,30.06,29.87,10,10,10,18,4,29,0.00,1,,331
2013-3-18,37,24,10,25,4,-2,93,47,19,30.45,30.33,30.20,10,9,1,10,3,18,0.00,2,,179
2013-3-19,33,30,26,28,26,21,93,83,75,30.18,29.86,29.67,10,4,0,12,3,21,0.57,8,,15
2013-3-20,33,26,19,23,17,16,86,67,48,29.79,29.74,29.71,10,10,3,18,5,30,0.01,4,,242
2013-3-21,37,22,8,18,11,3,93,60,30,29.79,29.70,29.59,10,10,5,8,3,,0.00,0,,339
2013-3-22,35,24,14,21,15,9,93,62,41,29.75,29.68,29.64,10,10,8,13,3,21,0.00,3,,274
2013-3-23,39,29,19,19,16,12,86,54,33,29.80,29.73,29.67,10,10,10,21,7,33,0.00,5,,288
2013-3-24,41,34,26,21,20,18,80,55,45,29.85,29.80,29.75,10,10,10,17,7,24,0.00,5,,331
2013-3-25,42,32,21,27,23,18,93,66,45,29.78,29.65,29.53,10,10,10,10,2,20,0.00,4,,50
2013-3-26,44,35,26,28,23,18,86,62,34,29.82,29.69,29.58,10,10,10,17,3,22,0.00,5,,330
2013-3-27,50,36,21,28,22,18,86,59,32,29.90,29.82,29.78,10,10,10,20,3,26,0.00,3,,338
2013-3-28,48,40,32,32,29,27,87,68,43,30.05,29.97,29.91,10,10,10,13,4,18,0.00,7,,356
2013-3-29,51,40,28,34,28,25,93,65,35,30.08,30.05,30.00,10,10,10,15,3,18,0.00,6,,312
2013-3-30,53,40,26,30,20,10,93,55,19,30.12,30.07,30.03,10,10,7,15,3,23,0.00,1,,336
2013-3-31,55,38,21,37,23,18,93,60,24,30.13,30.01,29.75,10,10,4,20,3,29,0.06,2,,199